Weather History for St. Croix, VI

Change the Weather History Date:

Sunday, July 28, 2013

  Actual Average Record
Temperature  
Mean Temperature 81 °F 84 °F  
Max Temperature 87 °F 89 °F 93 °F (1983)
Min Temperature 75 °F 79 °F 73 °F (1955)
Degree Days  
Heating Degree Days 0 0  
Month to date heating degree days 0 0  
Since 1 June heating degree days 0 0  
Since 1 July heating degree days 0 0  
Cooling Degree Days 16 19  
Month to date cooling degree days 523 532  
Year to date cooling degree days 3029 3225  
Since 1 June cooling degree days 968 1072  
Growing Degree Days 30 (Base 50)    
Moisture  
Dew Point 74 °F    
Average Humidity 81    
Maximum Humidity 91    
Minimum Humidity 70    
Precipitation  
Precipitation 0.67 in 0.11 in 1.12 in (1995)
Month to date precipitation 1.70 2.71  
Year to date precipitation 16.81 16.65  
Sea Level Pressure  
Sea Level Pressure 30.02 in    
Wind  
Wind Speed 3 mph (North)    
Max Wind Speed 12 mph    
Max Gust Speed 15 mph    
Visibility 9 miles    
Events Rain    
T = Trace of Precipitation, MM = Missing Value Source: NWS Daily Summary

Daily Weather History Graph

Daily Weather History Graph

Search for Another Location

Airport:

Trip Planner

Search our weather history database for the weather conditions in past years. The results will help you decide how hot, cold, wet, or windy it might be!

Date:

Astronomy

Jul. 28, 2013 Rise Set
Actual Time 5:56 AM AST 6:54 PM AST
Civil Twilight 5:33 AM AST 7:17 PM AST
Nautical Twilight 5:06 AM AST 7:44 PM AST
Astronomical Twilight 4:38 AM AST 8:12 PM AST
Moon 11:22 PM AST (7/28) 11:28 AM AST (7/28)
Length of Visible Light 13h 43m
Length of Day
12h 57m
Waning Gibbous, 61% of the Moon is Illuminated
Jul 28
Waning Gibbous
Jul 29
Last Quarter
Aug 6
New
Aug 14
First Quarter
Aug 20
Full

Hourly Weather History & Observations

Time (AST) Temp. Heat Index Dew Point Humidity Pressure Visibility Wind Dir Wind Speed Gust Speed Precip Events Conditions
12:53 AM 79.0 °F - 72.0 °F 79% 30.03 in 10.0 mi NE 4.6 mph - N/A   Clear
1:53 AM 78.1 °F - 72.0 °F 81% 30.01 in 10.0 mi NE 4.6 mph - N/A   Clear
2:53 AM 75.9 °F - 72.0 °F 87% 30.00 in 10.0 mi North 5.8 mph - N/A   Partly Cloudy
3:53 AM 75.9 °F - 72.0 °F 87% 29.99 in 10.0 mi North 3.5 mph - N/A   Partly Cloudy
4:53 AM 75.9 °F - 72.0 °F 87% 29.99 in 10.0 mi North 3.5 mph - N/A   Clear
5:53 AM 75.9 °F - 72.0 °F 87% 30.01 in 10.0 mi North 4.6 mph - N/A   Scattered Clouds
6:53 AM 78.1 °F - 73.0 °F 84% 30.03 in 10.0 mi Calm Calm - N/A   Scattered Clouds
7:53 AM 80.1 °F 84.5 °F 73.9 °F 81% 30.04 in 10.0 mi Calm Calm - 0.03 in   Partly Cloudy
8:53 AM 84.0 °F 91.2 °F 73.9 °F 72% 30.05 in 10.0 mi Calm Calm - N/A   Partly Cloudy
9:53 AM 81.0 °F 86.7 °F 75.0 °F 82% 30.04 in 10.0 mi North 3.5 mph - 0.00 in Rain Light Rain
10:53 AM 80.1 °F 84.2 °F 73.0 °F 79% 30.05 in 10.0 mi NNE 8.1 mph - 0.03 in   Scattered Clouds
11:47 AM 80.6 °F 86.2 °F 75.2 °F 84% 30.05 in 1.8 mi NNE 11.5 mph - 0.12 in Rain Heavy Rain
11:53 AM 78.1 °F - 73.9 °F 87% 30.05 in 1.2 mi North 8.1 mph - 0.18 in Rain Heavy Rain
12:01 PM 78.8 °F - 73.4 °F 83% 30.04 in 3.0 mi NNW 4.6 mph - 0.02 in Rain Heavy Rain
12:53 PM 82.9 °F 90.8 °F 75.9 °F 79% 30.03 in 10.0 mi Calm Calm - 0.05 in   Scattered Clouds
2:53 PM 84.0 °F 91.2 °F 73.9 °F 72% 30.00 in 10.0 mi SSE 3.5 mph - N/A   Scattered Clouds
3:00 PM 84.2 °F 90.9 °F 73.4 °F 70% 30.00 in 10.0 mi North 3.5 mph - N/A   Overcast
3:36 PM 84.2 °F 92.3 °F 75.2 °F 74% 30.00 in 10.0 mi Calm Calm - 0.03 in   Mostly Cloudy
3:53 PM 84.0 °F 92.6 °F 75.9 °F 76% 30.00 in 10.0 mi Calm Calm - 0.03 in   Scattered Clouds
4:00 PM 84.2 °F 92.3 °F 75.2 °F 74% 30.00 in 10.0 mi Calm Calm - N/A   Mostly Cloudy
4:53 PM 84.0 °F 92.6 °F 75.9 °F 76% 29.99 in 10.0 mi Calm Calm - N/A   Scattered Clouds
5:53 PM 82.9 °F 90.2 °F 75.0 °F 77% 29.99 in 10.0 mi Calm Calm - N/A   Mostly Cloudy
6:46 PM 80.6 °F 86.2 °F 75.2 °F 84% 30.01 in 1.5 mi East 4.6 mph - 0.12 in Rain Heavy Rain
6:53 PM 80.1 °F 85.1 °F 75.0 °F 85% 30.01 in 1.0 mi Variable 3.5 mph - 0.24 in Rain Heavy Rain
7:04 PM 80.6 °F 86.2 °F 75.2 °F 84% 30.01 in 3.0 mi NNW 4.6 mph - 0.07 in Rain Rain
7:53 PM 80.1 °F 85.4 °F 75.9 °F 87% 30.01 in 10.0 mi NNW 3.5 mph - 0.11 in   Overcast
8:02 PM 80.6 °F 86.2 °F 75.2 °F 84% 30.02 in 10.0 mi North 3.5 mph - N/A   Overcast
8:09 PM 78.8 °F - 75.2 °F 89% 30.02 in 10.0 mi North 3.5 mph - N/A   Mostly Cloudy
8:53 PM 79.0 °F - 75.0 °F 88% 30.03 in 10.0 mi North 3.5 mph - N/A   Mostly Cloudy
9:32 PM 78.8 °F - 75.2 °F 89% 30.04 in 10.0 mi North 3.5 mph - N/A   Mostly Cloudy
9:49 PM 78.8 °F - 75.2 °F 89% 30.04 in 10.0 mi North 4.6 mph - N/A   Scattered Clouds
9:53 PM 78.1 °F - 75.0 °F 90% 30.04 in 10.0 mi North 4.6 mph - N/A   Scattered Clouds
10:53 PM 78.1 °F - 75.0 °F 90% 30.05 in 10.0 mi North 3.5 mph - N/A   Clear
11:53 PM 77.0 °F - 73.9 °F 90% 30.04 in 10.0 mi Calm Calm - N/A   Clear